This demonstration page uses our WeatherBlox Daily Observations layout. Learn more.

Left ArrowRight Arrow

Hourly Observations for June 3, 2015

Temp ( °F °C ) Dew Point ( °F °C ) Humidity (%) Winds ( mph kmh ) Pressure ( in mb ) Visibility ( mi km ) Precip ( " mm )
12:51 am 00:51 Clear 80 26.7 30 -1.1 16 16 NNW 13 20 29.72 1007 10 16 0.00 0.00
1:51 am 01:51 Clear 75 23.9 29 -1.7 18 18 NNW 9 15 29.72 1007 10 16 0.00 0.00
2:51 am 02:51 Clear 71 21.7 29 -1.7 21 21 SSE 3 6 29.73 1007 10 16 0.00 0.00
3:51 am 03:51 Clear 67 19.4 29 -1.7 24 24 SE 6 9 29.74 1007 10 16 0.00 0.00
4:51 am 04:51 Clear 66 18.9 26 -3.3 22 22 Calm 29.74 1007 10 16 0.00 0.00
5:51 am 05:51 Sunny 65 18.3 27 -2.8 24 24 VRB 3 6 29.77 1008 10 16 0.00 0.00
6:51 am 06:51 Sunny 72 22.2 28 -2.2 19 19 SE 5 7 29.78 1008 10 16 0.00 0.00
7:51 am 07:51 Sunny 77 25 28 -2.2 16 16 SSE 5 7 29.78 1009 10 16 0.00 0.00
8:51 am 08:51 Sunny 82 27.8 26 -3.3 13 13 VRB 3 6 29.78 1008 10 16 0.00 0.00
9:51 am 09:51 Sunny 87 30.6 23 -5 9 9 Calm 29.76 1008 10 16 0.00 0.00
10:51 am 10:51 Mostly Sunny 90 32.2 23 -5 9 9 SSE 8 13 29.76 1008 10 16 0.00 0.00
11:51 am 11:51 Sunny 92 33.3 22 -5.6 8 8 VRB 6 9 29.72 1006 10 16 0.00 0.00
12:51 pm 12:51 Mostly Sunny 97 36.1 22 -5.6 7 7 WNW 10 17 29.69 1005 10 16 0.00 0.00
1:51 pm 13:51 Mostly Cloudy 98 36.7 20 -6.7 6 6 NW 12 19 29.67 1005 10 16 0.00 0.00
2:51 pm 14:51 Mostly Cloudy 97 36.1 19 -7.2 6 6 VRB 3 6 29.65 1004 10 16 0.00 0.00
3:51 pm 15:51 Cloudy 98 36.7 16 -8.9 5 5 W 12 19 29.62 1003 10 16 0.00 0.00
4:51 pm 16:51 Mostly Cloudy 98 36.7 14 -10 4 4 WSW 8 13 29.61 1003 10 16 0.00 0.00
5:51 pm 17:51 Mostly Cloudy 97 36.1 11 -11.7 4 4 W 13 20 29.60 1003 10 16 0.00 0.00
6:51 pm 18:51 Mostly Cloudy 94 34.4 14 -10 5 5 WNW 17 28 29.61 1003 10 16 0.00 0.00
7:05 pm 19:05 Mostly Cloudy 93 33.9 15 -9.4 6 6 WNW 15 24 29.47 998 10 16 0.00 0.00
7:51 pm 19:51 Mostly Cloudy 89 31.7 12 -11.1 5 5 WNW 12 19 29.63 1003 10 16 0.00 0.00
8:51 pm 20:51 Mostly Clear 85 29.4 12 -11.1 6 6 NW 12 19 29.64 1004 10 16 0.00 0.00
9:51 pm 21:51 Mostly Clear 80 26.7 17 -8.3 9 9 NW 10 17 29.66 1004 10 16 0.00 0.00
10:51 pm 22:51 Clear 77 25 19 -7.2 11 11 NW 10 17 29.67 1005 10 16 0.00 0.00
11:51 pm 23:51 Clear 77 25 17 -8.3 10 10 NNW 12 19 29.67 1005 10 16 0.00 0.00

Powered by AerisWeather